Вернуться в каталог

STARLINK-1351

АктивенСвязьVLEO
NORAD 45697·PAYLOAD·🇺🇸 United States

Запущен Jun 4, 2020 с Cape Canaveral Space Force Station

Loading…

Ближайшие Пролёты (ближайшие 24 часа)

TLE

СвежийSource: CelesTrak SupGP

Эпоха: Sep 15, 2026, 01:20 UTC

1 45697C 20035AS  26258.05604167  .00068752  00000+0  40588-3 0  2586
2 45697  53.0339 170.6051 0005793 102.3948 241.5086 15.77392753    13

Отслеживайте STARLINK-1351 в реальном времени с AllMySat

Download on the App Store